Regional Weather Roundup
Issued by NWS

Home | Current Version | Previous Version | Text Only | Print | Product List | Glossary Off
Versions: 1 2 3 4 5 6 7 8 9 10 11 12 13 14 15 16 17 18 19 20 21 22 23 24 25 26 27 28 29 30 31 32 33 34 35 36 37 38 39 40 41 42 43 44 45 46 47 48 49

000
ASUS45 KCYS 290710
RWRWY

WYOMING REGIONAL WEATHER ROUNDUP
NATIONAL WEATHER SERVICE CHEYENNE WY
100 AM MDT TUE JUL 29 2014

NOTE:  "FAIR" INDICATES FEW OR NO CLOUDS BELOW 12,000 FEET
WITH NO SIGNIFICANT WEATHER AND/OR OBSTRUCTIONS TO VISIBILITY.

WYZ001-290800-
YELLOWSTONE NATIONAL PARK

CITY           SKY/WX    TMP DP  RH WIND       PRES   REMARKS
LK YELLOWSTONE   N/A     57  44  62 VRB5      30.51S
W YELLOWSTONE  NOT AVBL

$$
WYZ002>013-054>058-071-098>099-290800-
NORTHERN WYOMING

CITY           SKY/WX    TMP DP  RH WIND       PRES   REMARKS
JACKSON        CLOUDY    68  43  40 SE5       30.35S
CODY           NOT AVBL
GREYBULL       CLOUDY    82  41  23 N14       30.17S
WORLAND        CLOUDY    74  51  44 SE7       30.21F
SHERIDAN       CLOUDY    71  49  45 E5        30.23S
BUFFALO        CLOUDY    71  50  47 W14       30.31S
GILLETTE       MOCLDY    70  51  51 SE10      30.27R
HULETT         FAIR      61  52  72 MISG      30.29
NEWCASTLE      FAIR      63  46  55 CALM      30.27

$$
WYZ014>020-022>026-101>103-290800-
CENTRAL WYOMING

CITY           SKY/WX    TMP DP  RH WIND       PRES   REMARKS
BIG PINEY      CLOUDY    70  40  33 N7        30.35R
PINEDALE       CLOUDY    63  41  45 W7        30.37S
DUBOIS         CLOUDY    63  37  39 CALM      30.39R
LANDER         CLOUDY    74  42  31 NW8       30.27R
RIVERTON       MOCLDY    73  43  33 NE16      30.26R
CASPER         PTCLDY    67  51  56 E6        30.25S
DOUGLAS        CLEAR     66  52  60 E10       30.26S

$$
WYZ021-027>030-104>119-290800-
SOUTHERN WYOMING

CITY           SKY/WX    TMP DP  RH WIND       PRES   REMARKS
EVANSTON       CLOUDY    56  54  93 SW7       30.38S
FORT BRIDGER   FAIR      64  49  58 NW7       30.39S
ROCK SPRINGS   CLOUDY    67  45  45 SW10      30.33S
DIXON          FAIR      66  48  52 N3        30.38S
RAWLINS        MOCLDY    68  46  45 W12       30.35R
SARATOGA       FAIR      64  45  48 SE3       30.38F
LARAMIE        PTCLDY    59  51  75 S8        30.39F
CHEYENNE       PTCLDY    60  53  77 W5        30.33F
TORRINGTON     PTCLDY    64  57  78 E8        30.21F
PINE BLUFFS    FAIR      59  57  94 CALM      30.29S

$$



USA.gov is the U.S. government's official web portal to all federal, state and local government web resources and services.